Location: Chrząstowo
(52.0654°N, 17.1290°E)
Time: 22:45:45
(UTC+01:00)

ISS - Visible Passes

Search period start: 23 January 2019 00:00
Search period end: 02 February 2019 00:00
Orbit: 404 x 410 km, 51.6° (Epoch: 24 January)

Date Brightness Start Highest point End Pass type
(mag) Time Alt. Az. Time Alt. Az. Time Alt. Az.
23 Jan -1.4 18:40:04 10° SSW 18:41:05 15° S 18:41:05 15° S visible
24 Jan -1.6 17:49:46 10° S 17:51:26 13° SE 17:52:04 13° SE visible
24 Jan -0.9 19:24:11 10° SW 19:24:47 14° SW 19:24:47 14° SW visible
25 Jan -2.6 18:33:05 10° SW 18:35:41 32° S 18:35:41 32° S visible
26 Jan -2.2 17:42:10 10° SSW 17:44:53 24° SSE 17:46:30 16° ESE visible
26 Jan -1.5 19:17:47 10° WSW 19:19:14 24° WSW 19:19:14 24° WSW visible
27 Jan -3.6 18:26:30 10° WSW 18:29:43 53° SSE 18:30:00 51° SE visible
28 Jan -3.0 17:35:17 10° SW 17:38:23 39° SSE 17:40:43 16° E visible
28 Jan -2.1 19:11:27 10° W 19:13:26 33° W 19:13:26 33° W visible
29 Jan -3.8 18:20:04 10° WSW 18:23:21 74° S 18:24:07 49° E visible
29 Jan -0.3 19:56:34 10° W 19:56:50 12° W 19:56:50 12° W visible
30 Jan -3.5 17:28:42 10° WSW 17:31:58 60° SSE 17:34:47 13° E visible
30 Jan -2.7 19:05:08 10° W 19:07:30 44° W 19:07:30 44° W visible
31 Jan -3.9 18:13:41 10° W 18:17:00 85° S 18:18:09 38° E visible
31 Jan -0.6 19:50:13 10° W 19:50:52 15° W 19:50:52 15° W visible
01 Feb -3.7 17:22:14 10° WSW 17:25:33 79° S 17:28:49 10° E visible
01 Feb -3.2 18:58:45 10° W 19:01:32 57° WSW 19:01:32 57° WSW visible
